Location: Newark
(46.1292°N, 1.0086°W)
Time: 00:26:14
(UTC+00:00)

Vanguard 3 - Pass Details

Date: 22 November 2019
Orbit: 507 x 3263 km, 33.3° (Epoch: 05 December)

Event Time Altitude Azimuth Distance (km) Brightness Sun altitude
Rises 19:43:41 0° 277° (W) 6,944 13.0 -33.9°
Reaches altitude 10° 19:51:01 10° 262° (W) 5,507 12.1 -35.2°
Maximum altitude 19:59:25 17° 229° (SW) 4,267 11.1 -36.6°
Drops below altitude 10° 20:06:02 10° 194° (SSW) 4,151 10.8 -37.8°
Enters shadow 20:09:17 - 179° (S) 4,478 10.8 -38.3°
Sets 20:10:22 0° 175° (S) 4,640 - -38.5°
